Montreal-Pierre Elliott T, Canada

11:18 PM EST on February 09, 2016 (GMT -0500)
Montreal International (Dorval)

Weather History for CYUL - June, 2013

Change the Weather History Date:

Saturday, June 22, 2013

  Actual Average Record
Temperature  
Mean Temperature 66 °F -  
Max Temperature 67 °F 76 °F 87 °F (1998)
Min Temperature 64 °F 59 °F 52 °F (2014)
Growing Degree Days 16 (Base 50)    
Moisture  
Dew Point 62 °F    
Average Humidity 86    
Maximum Humidity 94    
Minimum Humidity 64    
Precipitation  
Precipitation 0.24 in - - ()
Sea Level Pressure  
Sea Level Pressure 30.14 in    
Wind  
Wind Speed 6 mph ()    
Max Wind Speed 12 mph    
Max Gust Speed -    
Visibility 10.2 miles    
Events Rain    
Averages and records for this station are not official NWS values.
T = Trace of Precipitation, MM = Missing Value Source: Averaged Metar Reports

Daily Weather History Graph

Daily Weather History Graph

Search for Another Location

Airport or City:

Trip Planner

Search our weather history database for the weather conditions in past years. The results will help you decide how hot, cold, wet, or windy it might be!

Date:

Astronomy

Jun. 22, 2013 Rise Set
Actual Time 5:06 AM EDT 8:47 PM EDT
Civil Twilight 4:28 AM EDT 9:25 PM EDT
Nautical Twilight 3:37 AM EDT 10:16 PM EDT
Astronomical Twilight 2:28 AM EDT 11:25 PM EDT
Moon 7:56 PM EDT (6/22) 4:19 AM EDT (6/22)
Length of Visible Light 16h 56m
Length of Day
15h 40m
Waxing Gibbous, 99% of the Moon is Illuminated
Jun 22
Waxing Gibbous
Jun 23
Full
Jun 30
Last Quarter
Jul 8
New
Jul 15
First Quarter

Hourly Weather History & Observations

Time (EDT) Temp. Dew Point Humidity Pressure Visibility Wind Dir Wind Speed Gust Speed Precip Events Conditions
12:00 AM 69.8 °F 57.2 °F 64% 30.17 in 15.0 mi SSW 9.2 mph - N/A   Scattered Clouds
1:00 AM 68.0 °F 59.0 °F 73% 30.17 in 15.0 mi SSW 6.9 mph - N/A   Mostly Cloudy
2:00 AM 67 °F 59 °F 70% 30.17 in 15 mi SW 5.8 mph - -   Mostly Cloudy
2:00 AM 68.0 °F 59.0 °F 73% 30.17 in 15.0 mi SW 5.8 mph - N/A   Mostly Cloudy
3:00 AM 68.0 °F 59.0 °F 73% 30.16 in 15.0 mi SSW 8.1 mph - N/A   Overcast
4:00 AM 66.2 °F 60.8 °F 83% 30.16 in 15.0 mi Calm Calm - N/A Rain Light Rain Showers
5:00 AM 66.2 °F 59.0 °F 78% 30.15 in 15.0 mi NE 2.3 mph - N/A Rain Light Rain Showers
6:00 AM 64.4 °F 60.8 °F 88% 30.16 in 15.0 mi NE 6.9 mph - N/A Rain Light Rain Showers
7:00 AM 66.2 °F 60.8 °F 83% 30.16 in 15.0 mi ENE 5.8 mph - N/A   Overcast
8:00 AM 68 °F 61 °F 73% 30.17 in 15 mi ENE 6.9 mph - -   Partly Cloudy
8:00 AM 68.0 °F 60.8 °F 78% 30.17 in 15.0 mi East 5.8 mph - N/A   Overcast
8:56 AM 68.0 °F 60.8 °F 78% 30.18 in 15.0 mi ENE 9.2 mph - N/A Rain Light Rain Showers
9:00 AM 68.0 °F 60.8 °F 78% 30.18 in 15.0 mi East 8.1 mph - N/A Rain Light Rain Showers
10:00 AM 66.2 °F 62.6 °F 88% 30.18 in 15.0 mi NE 10.4 mph - N/A Rain Light Rain Showers
11:00 AM 66.2 °F 62.6 °F 88% 30.18 in 12.0 mi ENE 11.5 mph - N/A   Light Drizzle
12:00 PM 64.4 °F 62.6 °F 94% 30.18 in 8.0 mi NE 8.1 mph - N/A Rain Light Rain
1:00 PM 66.2 °F 62.6 °F 88% 30.17 in 10.0 mi East 4.6 mph - N/A Rain Light Rain
2:00 PM 65 °F 63 °F 89% 30.17 in 6 mi ENE 3.5 mph - - Rain Light Rain
2:00 PM 66.2 °F 62.6 °F 88% 30.17 in 6.0 mi East 4.6 mph - N/A Rain Light Rain
3:00 PM 66.2 °F 64.4 °F 94% 30.16 in 5.0 mi East 3.5 mph - N/A Rain Light Rain
4:00 PM 66.2 °F 62.6 °F 88% 30.14 in 5.0 mi East 4.6 mph - N/A Rain Light Rain
5:00 PM 64.4 °F 62.6 °F 94% 30.12 in 5.0 mi ESE 10.4 mph - N/A Rain Light Rain
5:25 PM 64.4 °F 62.6 °F 94% 30.10 in 10.0 mi East 8.1 mph - N/A   Overcast
6:00 PM 66.2 °F 62.6 °F 88% 30.10 in 8.0 mi East 6.9 mph - N/A Rain Light Rain
7:00 PM 66.2 °F 64.4 °F 94% 30.09 in 8.0 mi ESE 6.9 mph - N/A   Overcast
8:00 PM 66 °F 64 °F 90% 30.08 in 7 mi ESE 9.2 mph - -   Partly Cloudy
8:00 PM 66.2 °F 64.4 °F 94% 30.08 in 7.0 mi ESE 10.4 mph - N/A   Overcast
9:00 PM 66.2 °F 64.4 °F 94% 30.09 in 4.0 mi NNW 3.5 mph - N/A Rain Light Rain
9:19 PM 66.2 °F 64.4 °F 94% 30.09 in 3.0 mi East 2.3 mph - N/A Rain Light Rain
9:46 PM 66.2 °F 64.4 °F 94% 30.09 in 5.0 mi East 4.6 mph - N/A Rain Light Rain
10:00 PM 66.2 °F 64.4 °F 94% 30.09 in 4.0 mi East 4.6 mph - N/A Rain Light Rain
10:52 PM 66.2 °F 64.4 °F 94% 30.09 in 8.0 mi NE 8.1 mph - N/A   Light Drizzle
11:00 PM 66.2 °F 64.4 °F 94% 30.08 in 8.0 mi NE 3.5 mph - N/A   Light Drizzle
11:21 PM 66.2 °F 64.4 °F 94% 30.09 in 8.0 mi NE 3.5 mph - N/A Rain Light Rain